This is the latest recevied weather packets stored in our database for station/object PD2BVG. If no packets are shown the sender has not sent any weather packets the latest 10 day(s).
| Time | Temp. | Humidity | Pressure | Rain* | Wind** | Luminosity | Snow |
|---|---|---|---|---|---|---|---|
| 1777466797 | 17.78° C | 38% | 1025.1 hPa | 0 mm | - | 776 W/m² | - |
| 1777466737 | 17.78° C | 38% | 1025.1 hPa | 0 mm | - | 777 W/m² | - |
| 1777466675 | 18.33° C | 38% | 1025.1 hPa | 0 mm | - | 779 W/m² | - |
| 1777466616 | 18.33° C | 39% | 1025.1 hPa | 0 mm | - | 779 W/m² | - |
| 1777466555 | 17.78° C | 39% | 1025.2 hPa | 0 mm | - | 779 W/m² | - |
| 1777466494 | 17.78° C | 38% | 1025.1 hPa | 0 mm | - | 781 W/m² | - |
| 1777466434 | 18.33° C | 39% | 1025.2 hPa | 0 mm | - | 781 W/m² | - |
| 1777466375 | 18.33° C | 40% | 1025.1 hPa | 0 mm | - | 779 W/m² | - |
| 1777466314 | 17.78° C | 40% | 1025.1 hPa | 0 mm | - | 783 W/m² | - |
| 1777466254 | 17.78° C | 39% | 1025.2 hPa | 0 mm | - | 783 W/m² | - |
| 1777466193 | 17.78° C | 39% | 1025.2 hPa | 0 mm | - | 783 W/m² | - |
| 1777466135 | 17.78° C | 38% | 1025.1 hPa | 0 mm | - | 783 W/m² | - |
| 1777466074 | 17.78° C | 38% | 1025.3 hPa | 0 mm | - | 783 W/m² | - |
| 1777466014 | 17.78° C | 38% | 1025.1 hPa | 0 mm | - | 784 W/m² | - |
| 1777465954 | 17.78° C | 39% | 1025.2 hPa | 0 mm | - | 786 W/m² | - |
| 1777465893 | 17.78° C | 39% | 1025.3 hPa | 0 mm | - | 786 W/m² | - |
| 1777465832 | 17.78° C | 39% | 1025.2 hPa | 0 mm | - | 786 W/m² | - |
| 1777465771 | 17.78° C | 40% | 1025.2 hPa | 0 mm | - | 786 W/m² | - |
| 1777465712 | 17.22° C | 40% | 1025.2 hPa | 0 mm | - | 788 W/m² | - |
| 1777465650 | 17.22° C | 39% | 1025.2 hPa | 0 mm | - | 790 W/m² | - |
| 1777465591 | 17.22° C | 39% | 1025.2 hPa | 0 mm | - | 790 W/m² | - |
| 1777465529 | 17.22° C | 39% | 1025.2 hPa | 0 mm | - | 790 W/m² | - |
| 1777465468 | 17.22° C | 38% | 1025.3 hPa | 0 mm | - | 793 W/m² | - |
| 1777465406 | 17.22° C | 38% | 1025.3 hPa | 0 mm | - | 791 W/m² | - |
| 1777465344 | 17.78° C | 38% | 1025.4 hPa | 0 mm | - | 793 W/m² | - |
* Rain latest hour (hover to see other rain measurements)
** Current wind speed in m/s (hover to see current wind gust speed)